VOZ610 YBMK-YBBN

Flight info

Callsign VOZ610
Flight time 1h 10m
Altitude 37000
Route MUNAR Y61 RUROX Y177 SMOKA
Aircraft B738/M-SDE2E3FGHIRWXY/LB1

Departure

Time 2026-04-17 19:52
Airport Mackay Airport (YBMK)

Arrival

Time 2026-04-17 21:02
Airport Brisbane International Airport (YBBN)
Time Latitude Longitude Altitude Speed Heading
2026-04-17 19:27 -21.17522 149.18217 27 ft 0 kts 288°
2026-04-17 19:46 -21.17520 149.18216 24 ft 0 kts 311°
2026-04-17 19:46 -21.17518 149.18216 27 ft 0 kts 333°
2026-04-17 19:47 -21.17514 149.18216 25 ft 1 kts 348°
2026-04-17 19:47 -21.17497 149.18221 31 ft 5 kts 20°
2026-04-17 19:47 -21.17456 149.18243 25 ft 8 kts 39°
2026-04-17 19:48 -21.17421 149.18291 26 ft 8 kts 57°
2026-04-17 19:48 -21.17391 149.18342 24 ft 8 kts 57°
2026-04-17 19:48 -21.17361 149.18392 23 ft 8 kts 57°
2026-04-17 19:48 -21.17316 149.18416 24 ft 8 kts 345°
2026-04-17 19:49 -21.17249 149.18373 27 ft 16 kts 328°
2026-04-17 19:49 -21.17123 149.18289 27 ft 25 kts 328°
2026-04-17 19:49 -21.16972 149.18186 26 ft 26 kts 327°
2026-04-17 19:49 -21.16828 149.18089 23 ft 24 kts 328°
2026-04-17 19:50 -21.16691 149.17998 23 ft 23 kts 327°
2026-04-17 19:50 -21.16560 149.17909 27 ft 22 kts 327°
2026-04-17 19:50 -21.16444 149.17831 24 ft 17 kts 328°
2026-04-17 19:50 -21.16375 149.17758 28 ft 11 kts 308°
2026-04-17 19:51 -21.16340 149.17743 25 ft 4 kts 44°
2026-04-17 19:51 -21.16348 149.17766 25 ft 3 kts 142°
2026-04-17 19:51 -21.16352 149.17768 27 ft 0 kts 148°
2026-04-17 19:52 -21.16411 149.17807 26 ft 37 kts 148°
2026-04-17 19:52 -21.16844 149.18100 25 ft 112 kts 148°
2026-04-17 19:52 -21.17704 149.18681 89 ft 168 kts 148°
2026-04-17 19:52 -21.18712 149.19351 880 ft 168 kts 149°
2026-04-17 19:53 -21.19698 149.20014 1767 ft 169 kts 147°
2026-04-17 19:53 -21.20743 149.20708 2430 ft 186 kts 148°
2026-04-17 19:53 -21.21928 149.21518 2741 ft 216 kts 147°
2026-04-17 19:53 -21.23259 149.22434 3068 ft 236 kts 149°
2026-04-17 19:54 -21.24785 149.23055 3662 ft 243 kts 166°
2026-04-17 19:54 -21.26499 149.23446 4090 ft 260 kts 169°
2026-04-17 19:54 -21.28299 149.23805 4905 ft 264 kts 169°
2026-04-17 19:54 -21.30109 149.24167 5869 ft 265 kts 169°
2026-04-17 19:55 -21.31931 149.24541 6728 ft 269 kts 169°
2026-04-17 19:55 -21.33789 149.24931 7508 ft 275 kts 169°
2026-04-17 19:55 -21.35684 149.25336 8291 ft 280 kts 169°
2026-04-17 19:55 -21.37608 149.25752 9098 ft 285 kts 169°
2026-04-17 19:56 -21.38901 149.26033 9633 ft 287 kts 169°
2026-04-17 19:56 -21.40880 149.26465 10352 ft 295 kts 169°
2026-04-17 19:56 -21.43689 149.27078 10656 ft 327 kts 169°
2026-04-17 19:56 -21.45961 149.27576 11157 ft 338 kts 170°
2026-04-17 19:57 -21.48279 149.28085 11828 ft 342 kts 170°
2026-04-17 19:57 -21.50611 149.28668 12545 ft 347 kts 165°
2026-04-17 19:57 -21.52139 149.29213 12998 ft 351 kts 162°
2026-04-17 19:57 -21.54437 149.30162 13669 ft 357 kts 161°
2026-04-17 19:58 -21.56746 149.31175 14271 ft 362 kts 160°
2026-04-17 19:58 -21.59853 149.32547 15097 ft 366 kts 161°
2026-04-17 19:58 -21.62217 149.33579 15714 ft 369 kts 161°
2026-04-17 19:58 -21.64620 149.34616 16328 ft 373 kts 162°
2026-04-17 19:59 -21.67039 149.35649 16942 ft 376 kts 162°
2026-04-17 19:59 -21.68658 149.36337 17358 ft 378 kts 162°
2026-04-17 19:59 -21.71118 149.37378 17966 ft 382 kts 162°
2026-04-17 19:59 -21.73602 149.38426 18525 ft 385 kts 163°
2026-04-17 20:00 -21.76109 149.39482 19017 ft 389 kts 163°
2026-04-17 20:00 -21.78642 149.40548 19492 ft 393 kts 163°
2026-04-17 20:00 -21.82033 149.41976 20151 ft 397 kts 163°
2026-04-17 20:00 -21.84612 149.43063 20645 ft 401 kts 163°
2026-04-17 20:01 -21.86373 149.43804 20969 ft 403 kts 163°
2026-04-17 20:01 -21.88962 149.44895 21421 ft 407 kts 163°
2026-04-17 20:01 -21.91612 149.46012 21903 ft 411 kts 163°
2026-04-17 20:01 -21.94284 149.47139 22350 ft 414 kts 163°
2026-04-17 20:02 -21.96979 149.48277 22799 ft 418 kts 163°
2026-04-17 20:02 -21.99696 149.49424 23247 ft 421 kts 164°
2026-04-17 20:02 -22.02435 149.50581 23668 ft 425 kts 164°
2026-04-17 20:02 -22.05189 149.51745 24022 ft 427 kts 164°
2026-04-17 20:03 -22.07969 149.52920 24401 ft 430 kts 164°
2026-04-17 20:03 -22.10759 149.54101 24772 ft 432 kts 164°
2026-04-17 20:03 -22.13525 149.55272 25136 ft 434 kts 164°
2026-04-17 20:03 -22.16345 149.56466 25492 ft 437 kts 164°
2026-04-17 20:04 -22.19181 149.57667 25850 ft 439 kts 164°
2026-04-17 20:04 -22.22032 149.58874 26199 ft 441 kts 164°
2026-04-17 20:04 -22.24898 149.60089 26542 ft 444 kts 164°
2026-04-17 20:04 -22.27716 149.61284 26869 ft 446 kts 164°
2026-04-17 20:05 -22.30615 149.62513 27194 ft 449 kts 164°
2026-04-17 20:05 -22.33530 149.63751 27510 ft 451 kts 164°
2026-04-17 20:05 -22.36465 149.64997 27820 ft 454 kts 165°
2026-04-17 20:05 -22.39367 149.66229 28130 ft 456 kts 165°
2026-04-17 20:06 -22.42331 149.67489 28427 ft 459 kts 165°
2026-04-17 20:06 -22.45309 149.68755 28726 ft 461 kts 165°
2026-04-17 20:06 -22.48305 149.70029 29010 ft 464 kts 165°
2026-04-17 20:06 -22.51319 149.71312 29298 ft 466 kts 165°
2026-04-17 20:07 -22.54346 149.72601 29579 ft 469 kts 165°
2026-04-17 20:07 -22.57387 149.73897 29846 ft 471 kts 165°
2026-04-17 20:07 -22.60403 149.75182 30112 ft 473 kts 165°
2026-04-17 20:07 -22.63472 149.76491 30350 ft 475 kts 165°
2026-04-17 20:08 -22.66544 149.77802 30604 ft 476 kts 165°
2026-04-17 20:08 -22.69628 149.79119 30858 ft 477 kts 165°
2026-04-17 20:08 -22.72717 149.80439 31129 ft 478 kts 165°
2026-04-17 20:08 -22.75811 149.81761 31390 ft 478 kts 165°
2026-04-17 20:09 -22.78904 149.83084 31720 ft 477 kts 166°
2026-04-17 20:09 -22.81984 149.84403 32089 ft 475 kts 166°
2026-04-17 20:09 -22.85050 149.85717 32450 ft 473 kts 166°
2026-04-17 20:09 -22.88069 149.87010 32762 ft 472 kts 166°
2026-04-17 20:10 -22.91128 149.88319 33062 ft 472 kts 166°
2026-04-17 20:10 -22.94179 149.89626 33389 ft 471 kts 166°
2026-04-17 20:10 -22.97223 149.90931 33761 ft 469 kts 166°
2026-04-17 20:10 -23.00257 149.92233 34112 ft 468 kts 166°
2026-04-17 20:11 -23.03283 149.93531 34347 ft 468 kts 166°
2026-04-17 20:11 -23.06314 149.94831 34588 ft 468 kts 167°
2026-04-17 20:11 -23.09337 149.96129 34874 ft 467 kts 167°
2026-04-17 20:11 -23.12314 149.97409 35170 ft 466 kts 167°
2026-04-17 20:12 -23.15321 149.98702 35463 ft 464 kts 167°
2026-04-17 20:12 -23.18324 149.99994 35713 ft 464 kts 167°
2026-04-17 20:12 -23.21324 150.01284 35951 ft 464 kts 167°
2026-04-17 20:12 -23.24322 150.02575 36214 ft 463 kts 167°
2026-04-17 20:13 -23.27310 150.03862 36506 ft 461 kts 167°
2026-04-17 20:13 -23.30285 150.05145 36803 ft 459 kts 167°
2026-04-17 20:13 -23.33249 150.06423 37012 ft 460 kts 167°
2026-04-17 20:14 -23.39190 150.08981 37048 ft 463 kts 167°
2026-04-17 20:14 -23.45146 150.11557 37046 ft 458 kts 167°
2026-04-17 20:15 -23.51042 150.14109 37053 ft 455 kts 168°
2026-04-17 20:15 -23.56913 150.16650 37052 ft 453 kts 168°
2026-04-17 20:16 -23.62760 150.19181 37063 ft 451 kts 168°
2026-04-17 20:16 -23.68560 150.21694 37064 ft 452 kts 168°
2026-04-17 20:17 -23.74405 150.24228 37062 ft 452 kts 168°
2026-04-17 20:17 -23.80260 150.26771 37063 ft 454 kts 168°
2026-04-17 20:18 -23.86142 150.29327 37063 ft 455 kts 168°
2026-04-17 20:18 -23.92004 150.31879 37059 ft 457 kts 168°
2026-04-17 20:19 -23.97923 150.34458 37062 ft 459 kts 168°
2026-04-17 20:19 -24.03852 150.37044 37061 ft 459 kts 168°
2026-04-17 20:20 -24.09792 150.39638 37069 ft 460 kts 168°
2026-04-17 20:20 -24.15737 150.42236 37063 ft 460 kts 168°
2026-04-17 20:21 -24.21632 150.44816 37066 ft 459 kts 168°
2026-04-17 20:21 -24.27560 150.47413 37062 ft 458 kts 168°
2026-04-17 20:22 -24.33478 150.50007 37073 ft 457 kts 168°
2026-04-17 20:22 -24.39383 150.52598 37072 ft 456 kts 169°
2026-04-17 20:23 -24.45228 150.55165 37080 ft 456 kts 169°
2026-04-17 20:23 -24.51046 150.58053 37063 ft 469 kts 158°
2026-04-17 20:24 -24.56529 150.62011 37076 ft 473 kts 156°
2026-04-17 20:24 -24.61955 150.66085 37076 ft 472 kts 156°
2026-04-17 20:25 -24.67365 150.70100 37080 ft 472 kts 156°
2026-04-17 20:25 -24.72827 150.74108 37082 ft 472 kts 157°
2026-04-17 20:26 -24.78297 150.78109 37078 ft 473 kts 157°
2026-04-17 20:26 -24.83776 150.82121 37069 ft 473 kts 157°
2026-04-17 20:27 -24.89219 150.86115 37081 ft 473 kts 157°
2026-04-17 20:27 -24.94698 150.90139 37074 ft 474 kts 157°
2026-04-17 20:28 -25.00189 150.94177 37070 ft 475 kts 157°
2026-04-17 20:28 -25.05686 150.98224 37068 ft 475 kts 157°
2026-04-17 20:29 -25.11183 151.02276 37064 ft 476 kts 157°
2026-04-17 20:29 -25.16651 151.06311 37072 ft 476 kts 157°
2026-04-17 20:30 -25.24916 151.12417 37063 ft 477 kts 157°
2026-04-17 20:30 -25.30432 151.16499 37067 ft 477 kts 157°
2026-04-17 20:31 -25.35951 151.20587 37059 ft 478 kts 157°
2026-04-17 20:31 -25.38677 151.22608 36912 ft 480 kts 157°
2026-04-17 20:31 -25.41451 151.24664 36569 ft 478 kts 157°
2026-04-17 20:32 -25.44186 151.26700 36202 ft 472 kts 157°
2026-04-17 20:32 -25.46905 151.28724 35820 ft 469 kts 157°
2026-04-17 20:32 -25.49597 151.30727 35430 ft 465 kts 157°
2026-04-17 20:32 -25.52283 151.32724 35038 ft 462 kts 158°
2026-04-17 20:33 -25.54942 151.34700 34631 ft 460 kts 157°
2026-04-17 20:33 -25.57595 151.36672 34227 ft 458 kts 157°
2026-04-17 20:33 -25.60237 151.38638 33796 ft 457 kts 157°
2026-04-17 20:33 -25.62832 151.40571 33383 ft 454 kts 157°
2026-04-17 20:34 -25.65446 151.42519 32980 ft 451 kts 157°
2026-04-17 20:34 -25.68043 151.44456 32588 ft 449 kts 157°
2026-04-17 20:34 -25.70624 151.46382 32209 ft 446 kts 157°
2026-04-17 20:34 -25.73191 151.48298 31822 ft 444 kts 157°
2026-04-17 20:35 -25.75699 151.50329 31352 ft 452 kts 150°
2026-04-17 20:35 -25.78106 151.52609 30852 ft 456 kts 148°
2026-04-17 20:35 -25.80464 151.54973 30453 ft 457 kts 147°
2026-04-17 20:35 -25.82769 151.57327 30050 ft 456 kts 146°
2026-04-17 20:36 -25.85100 151.59708 29607 ft 454 kts 147°
2026-04-17 20:36 -25.87421 151.62063 29209 ft 450 kts 147°
2026-04-17 20:36 -25.89732 151.64388 28799 ft 447 kts 147°
2026-04-17 20:36 -25.92032 151.66687 28409 ft 443 kts 147°
2026-04-17 20:37 -25.94318 151.68964 28008 ft 440 kts 147°
2026-04-17 20:37 -25.96585 151.71218 27634 ft 436 kts 147°
2026-04-17 20:37 -25.98843 151.73464 27242 ft 433 kts 147°
2026-04-17 20:37 -26.01052 151.75660 26881 ft 430 kts 147°
2026-04-17 20:38 -26.03275 151.77872 26503 ft 428 kts 147°
2026-04-17 20:38 -26.05488 151.80074 26130 ft 426 kts 146°
2026-04-17 20:38 -26.07686 151.82265 25752 ft 423 kts 146°
2026-04-17 20:38 -26.09874 151.84446 25349 ft 421 kts 146°
2026-04-17 20:39 -26.12046 151.86613 24985 ft 419 kts 146°
2026-04-17 20:39 -26.14180 151.88744 24614 ft 417 kts 146°
2026-04-17 20:39 -26.16337 151.90898 24237 ft 416 kts 146°
2026-04-17 20:39 -26.18486 151.93045 23855 ft 414 kts 145°
2026-04-17 20:40 -26.20591 151.95150 23461 ft 412 kts 145°
2026-04-17 20:40 -26.22724 151.97284 23040 ft 410 kts 145°
2026-04-17 20:40 -26.24835 151.99399 22659 ft 406 kts 144°
2026-04-17 20:40 -26.26923 152.01492 22281 ft 403 kts 144°
2026-04-17 20:41 -26.28995 152.03569 21912 ft 399 kts 144°
2026-04-17 20:41 -26.31048 152.05628 21552 ft 395 kts 144°
2026-04-17 20:41 -26.33081 152.07668 21199 ft 391 kts 144°
2026-04-17 20:41 -26.35069 152.09663 20851 ft 388 kts 144°
2026-04-17 20:42 -26.37066 152.11668 20498 ft 385 kts 144°
2026-04-17 20:42 -26.39042 152.13652 20154 ft 381 kts 144°
2026-04-17 20:42 -26.41004 152.15624 19805 ft 378 kts 144°
2026-04-17 20:42 -26.42950 152.17580 19464 ft 375 kts 143°
2026-04-17 20:43 -26.44882 152.19523 19129 ft 372 kts 143°
2026-04-17 20:43 -26.46799 152.21453 18781 ft 370 kts 143°
2026-04-17 20:43 -26.48702 152.23368 18448 ft 367 kts 143°
2026-04-17 20:43 -26.50562 152.25242 18069 ft 364 kts 143°
2026-04-17 20:44 -26.52435 152.27130 17690 ft 360 kts 142°
2026-04-17 20:44 -26.54284 152.28996 17361 ft 357 kts 143°
2026-04-17 20:44 -26.56118 152.30846 17015 ft 353 kts 143°
2026-04-17 20:44 -26.57934 152.32678 16681 ft 350 kts 143°
2026-04-17 20:45 -26.59732 152.34494 16366 ft 347 kts 143°
2026-04-17 20:45 -26.61515 152.36294 16040 ft 344 kts 143°
2026-04-17 20:45 -26.63261 152.38059 15718 ft 342 kts 142°
2026-04-17 20:45 -26.65003 152.39837 15456 ft 337 kts 142°
2026-04-17 20:46 -26.66706 152.41594 15208 ft 329 kts 142°
2026-04-17 20:46 -26.68363 152.43308 14968 ft 321 kts 142°
2026-04-17 20:46 -26.69989 152.44989 14723 ft 316 kts 142°
2026-04-17 20:46 -26.71592 152.46646 14488 ft 313 kts 142°
2026-04-17 20:47 -26.73198 152.48302 14268 ft 314 kts 142°
2026-04-17 20:47 -26.74806 152.49961 14047 ft 315 kts 142°
2026-04-17 20:47 -26.76414 152.51622 13828 ft 312 kts 142°
2026-04-17 20:47 -26.78002 152.53265 13534 ft 310 kts 142°
2026-04-17 20:48 -26.79560 152.54876 13228 ft 308 kts 142°
2026-04-17 20:48 -26.81128 152.56498 12923 ft 306 kts 142°
2026-04-17 20:48 -26.82684 152.58108 12617 ft 304 kts 142°
2026-04-17 20:48 -26.84235 152.59713 12316 ft 303 kts 142°
2026-04-17 20:49 -26.85779 152.61311 12009 ft 302 kts 142°
2026-04-17 20:49 -26.87317 152.62905 11699 ft 301 kts 142°
2026-04-17 20:49 -26.88668 152.64305 11467 ft 297 kts 142°
2026-04-17 20:49 -26.90179 152.65873 11210 ft 295 kts 142°
2026-04-17 20:50 -26.91664 152.67413 10920 ft 294 kts 142°
2026-04-17 20:50 -26.93165 152.68970 10623 ft 293 kts 142°
2026-04-17 20:50 -26.94660 152.70521 10325 ft 292 kts 142°
2026-04-17 20:50 -26.96139 152.72058 10125 ft 287 kts 142°
2026-04-17 20:51 -26.97590 152.73559 9948 ft 282 kts 142°
2026-04-17 20:51 -26.99037 152.75032 9634 ft 280 kts 142°
2026-04-17 20:51 -27.00476 152.76495 9325 ft 279 kts 142°
2026-04-17 20:51 -27.01886 152.77943 9037 ft 278 kts 142°
2026-04-17 20:52 -27.03304 152.79407 8743 ft 277 kts 142°
2026-04-17 20:52 -27.04715 152.80865 8456 ft 275 kts 142°
2026-04-17 20:52 -27.06122 152.82318 8166 ft 275 kts 142°
2026-04-17 20:52 -27.07526 152.83769 7865 ft 274 kts 142°
2026-04-17 20:53 -27.08927 152.85215 7587 ft 273 kts 142°
2026-04-17 20:53 -27.10313 152.86647 7291 ft 274 kts 142°
2026-04-17 20:53 -27.11681 152.88132 6981 ft 277 kts 133°
2026-04-17 20:53 -27.12524 152.90100 6694 ft 284 kts 109°
2026-04-17 20:54 -27.13016 152.92219 6386 ft 285 kts 107°
2026-04-17 20:54 -27.13498 152.94378 6085 ft 285 kts 107°
2026-04-17 20:54 -27.13972 152.96534 5794 ft 284 kts 107°
2026-04-17 20:54 -27.14428 152.98687 5528 ft 282 kts 107°
2026-04-17 20:55 -27.14876 153.00796 5404 ft 274 kts 107°
2026-04-17 20:55 -27.15315 153.02851 5275 ft 267 kts 107°
2026-04-17 20:55 -27.15740 153.04839 5233 ft 256 kts 107°
2026-04-17 20:55 -27.16144 153.06724 5122 ft 242 kts 107°
2026-04-17 20:56 -27.16525 153.08504 5013 ft 227 kts 107°
2026-04-17 20:56 -27.16878 153.10151 4877 ft 214 kts 108°
2026-04-17 20:56 -27.17223 153.11750 4607 ft 208 kts 108°
2026-04-17 20:56 -27.17559 153.13311 4397 ft 204 kts 107°
2026-04-17 20:57 -27.17888 153.14848 4192 ft 203 kts 107°
2026-04-17 20:57 -27.18151 153.16410 3992 ft 204 kts 103°
2026-04-17 20:57 -27.18387 153.17981 3785 ft 205 kts 103°
2026-04-17 20:57 -27.18753 153.19505 3551 ft 198 kts 126°
2026-04-17 20:58 -27.19772 153.20338 3349 ft 180 kts 172°
2026-04-17 20:58 -27.20963 153.20142 3128 ft 171 kts 197°
2026-04-17 20:58 -27.22074 153.19713 2878 ft 166 kts 199°
2026-04-17 20:58 -27.23137 153.19276 2666 ft 159 kts 201°
2026-04-17 20:59 -27.24138 153.18786 2452 ft 157 kts 204°
2026-04-17 20:59 -27.25111 153.18253 2282 ft 155 kts 206°
2026-04-17 20:59 -27.26075 153.17705 2073 ft 157 kts 206°
2026-04-17 20:59 -27.27040 153.17152 1882 ft 150 kts 207°
2026-04-17 21:00 -27.27932 153.16638 1672 ft 143 kts 207°
2026-04-17 21:00 -27.28813 153.16131 1480 ft 142 kts 207°
2026-04-17 21:00 -27.29699 153.15622 1293 ft 145 kts 208°
2026-04-17 21:00 -27.30594 153.15107 1104 ft 145 kts 207°
2026-04-17 21:01 -27.31493 153.14590 912 ft 144 kts 208°
2026-04-17 21:01 -27.32385 153.14077 747 ft 146 kts 207°
2026-04-17 21:01 -27.33304 153.13549 562 ft 149 kts 207°
2026-04-17 21:01 -27.34220 153.13021 360 ft 145 kts 208°
2026-04-17 21:02 -27.35102 153.12510 201 ft 145 kts 207°
2026-04-17 21:02 -27.36000 153.12000 31 ft 142 kts 207°
2026-04-17 21:02 -27.36790 153.11546 19 ft 105 kts 207°
2026-04-17 21:02 -27.37247 153.11283 18 ft 43 kts 207°
2026-04-17 21:03 -27.37486 153.11156 18 ft 34 kts 199°
2026-04-17 21:03 -27.37694 153.11125 17 ft 27 kts 175°
2026-04-17 21:03 -27.37828 153.11136 17 ft 17 kts 168°
2026-04-17 21:03 -27.37887 153.11227 17 ft 15 kts 79°
2026-04-17 21:04 -27.37809 153.11293 17 ft 14 kts 26°
2026-04-17 21:04 -27.37724 153.11342 18 ft 14 kts 27°
2026-04-17 21:04 -27.37639 153.11390 17 ft 14 kts 26°
2026-04-17 21:04 -27.37551 153.11440 18 ft 16 kts 27°
2026-04-17 21:05 -27.37447 153.11499 18 ft 16 kts 27°
2026-04-17 21:05 -27.37415 153.11593 19 ft 14 kts 116°
2026-04-17 21:05 -27.37459 153.11692 17 ft 14 kts 116°
2026-04-17 21:05 -27.37502 153.11786 18 ft 13 kts 117°
2026-04-17 21:06 -27.37547 153.11884 17 ft 16 kts 117°
2026-04-17 21:06 -27.37608 153.12016 18 ft 21 kts 117°
2026-04-17 21:06 -27.37674 153.12160 17 ft 20 kts 116°
2026-04-17 21:06 -27.37737 153.12301 17 ft 20 kts 117°
2026-04-17 21:07 -27.37800 153.12437 17 ft 19 kts 117°
2026-04-17 21:07 -27.37858 153.12566 17 ft 18 kts 117°
2026-04-17 21:07 -27.37913 153.12683 17 ft 16 kts 117°
2026-04-17 21:07 -27.37978 153.12762 17 ft 14 kts 179°
2026-04-17 21:08 -27.38062 153.12723 17 ft 13 kts 207°
2026-04-17 21:08 -27.38142 153.12678 17 ft 13 kts 207°
2026-04-17 21:08 -27.38241 153.12621 17 ft 19 kts 206°
2026-04-17 21:08 -27.38359 153.12554 19 ft 19 kts 207°
2026-04-17 21:09 -27.38475 153.12488 17 ft 18 kts 207°
2026-04-17 21:09 -27.38586 153.12424 17 ft 18 kts 207°
2026-04-17 21:09 -27.38693 153.12363 18 ft 17 kts 207°
2026-04-17 21:09 -27.38797 153.12304 17 ft 16 kts 207°
2026-04-17 21:10 -27.38884 153.12250 17 ft 11 kts 223°
2026-04-17 21:10 -27.38878 153.12173 19 ft 11 kts 308°
2026-04-17 21:10 -27.38834 153.12128 17 ft 6 kts 318°
2026-04-17 21:10 -27.38817 153.12084 18 ft 6 kts 280°
2026-04-17 21:11 -27.38811 153.12038 18 ft 5 kts 278°
2026-04-17 21:11 -27.38808 153.12015 18 ft 3 kts 278°
2026-04-17 21:11 -27.38807 153.12005 17 ft 0 kts 278°